FABIEND Weather Reports


Display with metric or nautical units.
time (UTC)temp
F
wind
direction
speed
MPH
gust
MPH
rain 1hr
in
rain 24hr
in
rain mn
in
humidity
%
barometer
mb
20260506090021 54 94 0.0 5.0 0.00 1.06 0.80 88 1010.4
20260506084520 53 152 0.0 0.0 0.02 1.06 0.80 90 1010.3
20260506083014 52 152 0.0 2.0 0.02 1.06 0.80 92 1010.2
20260506081512 52 152 1.0 3.0 0.02 1.06 0.80 93 1010.0
20260506073100 51 180 1.0 4.0 0.00 1.28 0.78 93 1009.4
20260506071608 51 170 2.0 4.0 0.00 1.28 0.78 94 1009.2
20260506061550 50 228 2.0 5.0 0.00 1.55 0.78 94 1008.5
20260506044551 50 128 0.0 2.0 0.35 1.69 0.74 95 1007.7
20260506043046 50 82 2.0 3.0 0.24 1.57 0.62 95 1007.6
20260506041556 50 213 0.0 0.0 0.06 1.37 0.42 95 1007.2
20260506040044 50 213 0.0 3.0 0.07 1.36 0.41 95 1007.2
20260506034545 50 198 0.0 1.0 0.07 1.35 0.39 95 1007.2
20260506033042 50 198 0.0 3.0 0.06 1.33 0.37 95 1007.2
20260506031542 50 198 1.0 3.0 0.06 1.31 0.35 95 1007.3
20260506030042 50 332 0.0 0.0 0.09 1.30 0.34 95 1007.3
20260506024542 50 332 0.0 3.0 0.09 1.36 0.32 95 1007.3
20260506023039 50 222 0.0 2.0 0.09 1.35 0.31 95 1007.5
20260506021538 50 222 0.0 0.0 0.07 1.33 0.28 94 1007.6
20260506020038 50 222 0.0 3.0 0.03 1.28 0.24 94 1007.8
20260506014546 50 222 0.0 3.0 0.04 1.45 0.24 94 1007.6
20260506013038 50 222 0.0 0.0 0.10 1.44 0.23 94 1007.6
20260506011539 50 222 0.0 4.0 0.15 1.43 0.22 94 1007.8
20260506010032 50 213 2.0 3.0 0.17 1.43 0.21 94 1008.1
20260506004538 50 213 1.0 2.0 0.19 1.57 0.20 94 1008.4
20260506003026 50 213 0.0 0.0 0.12 1.50 0.12 94 1008.6
20260506001525 50 213 0.0 1.0 0.07 1.45 0.07 94 1008.8
20260506000031 50 213 0.0 3.0 0.05 1.43 0.05 94 1009.0
20260505234522 50 240 0.0 0.0 0.01 1.44 0.01 94 1009.1
20260505233019 50 213 0.0 0.0 0.00 1.43 0.00 94 1009.2
20260505231518 51 213 0.0 0.0 0.00 1.43 0.00 93 1009.3
20260505230017 51 213 0.0 0.0 0.00 1.43 0.00 93 1009.5
20260505224519 51 213 0.0 0.0 0.00 1.48 0.00 93 1009.7
20260505223012 51 213 0.0 0.0 0.00 1.48 0.00 92 1009.9
20260505221511 51 213 0.0 3.0 0.00 1.48 0.00 93 1010.1
20260505220023 51 213 0.0 3.0 0.02 1.48 0.00 92 1010.2
20260505214513 51 213 0.0 0.0 0.02 1.55 1.48 91 1010.3
20260505213006 51 213 0.0 4.0 0.02 1.55 1.48 92 1010.4
20260505211506 51 213 2.0 4.0 0.02 1.55 1.48 92 1010.7
20260505210008 51 207 1.0 4.0 0.00 1.54 1.46 91 1011.1
20260505204510 52 233 2.0 3.0 0.00 1.56 1.46 91 1011.1
20260505203002 52 199 0.0 0.0 0.00 1.56 1.46 90 1011.1
20260505201607 52 199 0.0 2.0 0.00 1.56 1.46 90 1010.9
20260505194504 53 199 2.0 4.0 0.01 1.56 1.46 89 1010.7
20260505193103 53 164 2.0 5.0 0.01 1.56 1.46 91 1010.4
20260505191504 52 194 1.0 6.0 0.00 1.55 1.46 91 1010.5
20260505190003 53 192 1.0 7.0 0.00 1.57 1.46 91 1010.4
20260505184610 54 42 2.0 6.0 0.00 1.57 1.46 90 1010.0
20260505183004 54 355 0.0 5.0 0.00 1.57 1.46 90 1009.9
20260505181603 53 209 1.0 6.0 0.00 1.57 1.46 91 1009.5
20260505180103 52 211 2.0 4.0 0.00 1.57 1.46 90 1009.1
20260505174503 53 206 2.0 5.0 0.00 1.61 1.46 86 1009.0
20260505173102 53 215 1.0 5.0 0.01 1.61 1.46 86 1008.9
20260505171505 53 232 3.0 6.0 0.01 1.61 1.46 86 1009.1
20260505164602 53 157 2.0 6.0 0.07 1.66 1.46 88 1009.3
20260505163003 53 174 2.0 7.0 0.09 1.65 1.45 88 1009.4
20260505161603 53 223 4.0 8.0 0.09 1.65 1.45 89 1009.6
20260505160104 54 211 4.0 7.0 0.07 1.62 1.42 89 1010.0
20260505153111 56 74 1.0 4.0 0.06 1.61 1.36 91 1009.9
20260505151502 56 201 0.0 5.0 0.07 1.60 1.35 91 1009.7
20260505150117 56 243 1.0 5.0 0.13 1.59 1.35 90 1009.6
20260505130103 65 146 4.0 12.0 0.00 1.83 1.22 62 1009.3
20260505124501 65 117 3.0 9.0 0.00 1.98 1.22 67 1009.5
20260505123114 66 236 3.0 13.0 0.00 1.98 1.22 63 1009.5
20260505121603 66 100 3.0 10.0 0.00 1.98 1.22 66 1009.6
20260505114502 0 156 1.0 8.0 0.00 2.18 1.22 1010.0
20260505113102 0 25 0.0 4.0 0.00 2.18 1.22 1010.1
20260505111509 61 85 0.0 8.0 0.00 2.18 1.22 82 1010.4
20260505101602 60 319 0.0 2.0 0.00 2.38 1.22 90 1010.4
20260505100110 59 140 0.0 4.0 0.00 2.38 1.22 94 1010.3
20260505094608 58 51 3.0 6.0 0.00 2.52 1.22 95 1010.6
20260505093003 57 49 0.0 5.0 0.00 2.52 1.22 95 1010.5
20260505091603 57 59 0.0 3.0 0.00 2.52 1.22 95 1010.5